User: anonymous   Login
Location: Newark
(15.4608°S, 41.1635°W)
Time: 00:47:02
(UTC+00:00)
Language:

Transit 2A Rocket - Orbit

View from above orbital plane
View from above orbital plane
View from above satellite
View from above satellite

Ground track
Ground track

The orbit data is extracted from the following two-line orbital elements,

1    47U 60007C   21211.76765542  .00000036  00000-0  32983-4 0  9991
2    47  66.6659 143.1886 0227171   2.5780 357.6435 14.42163163194002
Epoch (UTC): 30 July 2021 18:25:25
Eccentricity: 0.0227171
inclination: 66.6659°
perigee height: 589 km
apogee height: 913 km
right ascension of ascending node: 143.1886°
argument of perigee: 2.5780°
revolutions per day: 14.42163163
mean anomaly at epoch: 357.6435°
orbit number at epoch: 19400

The dashed part of the orbit path shows where the satellite is in the earth's shadow,  

DLR